Find Starlink 5875

NORAD ID: 57221 Int'l Des: 2023-094 Owner: SPXS Country: US Constellation: starlink operational
LEOCIRCULAR

リアルタイム位置

3D地球を読み込み中...

Starlink 5875について

説明を読み込み中...

次回通過

Passes for default location (London). Set your location on the main map for personalized predictions.

高度履歴

Loading altitude history...

軌道要素

1 57221U 23094D 26121.96567264 .00002451 00000-0 98443-4 0 9996
2 57221 43.0026 93.2292 0001216 277.6035 82.4679 15.27616522155229
Epoch: May 1, 2026 • Age: 9 hours

現在のステータス

高度 492.0 km
速度 7.62 km/s
衛星直下点 -34.56°S, 58.32°E
打ち上げ日 Jul 7, 2023
運用期間 2.8 years
タイプ internet

技術仕様

分類 Payload
質量 305.00 kg
乾燥質量 290.00 kg
総質量 305.00 kg
長さ 0.20 m
直径 2.80 m
スパン 9.00 m
形状 Box + pan
製造者 SPXS
バスタイプ Starlink
フェーズステータス In Orbit
所有者/国 SPXS/US

Most Searched